weather.gov     
National Weather Service

Regional Weather Roundup
NWS Homepage
This page is being discontinued on March 12, 2014.
The same data is available at this site. Please update your bookmarks.
Thank you, and we apologize for the inconvenience.
Please send an email to SR-SRH.Webmaster@noaa.gov with any concerns.


Current Version
Previous Version:    01  02  03  04  05  06  07  08  09  10  11  12  13  14  15  16  17  18  19  20  21  22  23  24  25  26  27  
[Printable]
734
ASUS42 KFFC 292303
RWRGA
WEATHER ROUNDUP FOR GEORGIA
NATIONAL WEATHER SERVICE PEACHTREE CITY GA
700 PM EDT TUE JUL 29 2014

NOTE: "FAIR" INDICATES FEW OR NO CLOUDS BELOW 12,000 FEET WITH NO
SIGNIFICANT WEATHER AND/OR OBSTRUCTIONS TO VISIBILITY.

* = USE WITH CAUTION. THE STATIONS MARKED WITH AN ASTERISK MAY NOT
REPORT WEATHER SUCH AS PRECIPITATION, FOG, OR THUNDER AND ARE NOT
QUALITY CONTROLLED BY NWS.

THE REMARK "TC" DENOTES TEMPERATURE READING IN DEGREES CELSIUS.

GAZ001>058-300000-
NORTH GEORGIA

CITY           SKY/WX    TMP DP  RH WIND       PRES   REMARKS
ATLANTA        MOSUNNY   79  57  46 NW14      29.99S
ATHENS         MOSUNNY   83  57  41 W6        29.96S
CHAMBLEE       MOSUNNY   80  54  40 NW14      29.99R
PEACHTREE CITY SUNNY     82  54  37 NW10      30.00S
ROME           MOSUNNY   79  54  41 NW13      30.01R
WEST ATLANTA   MOSUNNY   80  56  43 W12       29.99S
GAINESVILLE    MOSUNNY   80  54  40 W10       30.01R
CARTERSVILLE   SUNNY     80  52  37 N10       30.01R


CITY           SKY/WX    TMP DP  RH WIND       PRES   REMARKS
DALTON*        SUNNY     75  55  50 N9        30.03R
LAWRENCEVILLE* MOSUNNY   81  52  36 W7        29.98S
MARIETTA       MOSUNNY   80  55  42 NW13      30.00R
KENNESAW*      MOSUNNY   77  52  41 N9        30.02R
$$

GAZ059>098-102>109-300000-
CENTRAL GEORGIA

CITY           SKY/WX    TMP DP  RH WIND       PRES   REMARKS
AUGUSTA-BUSH   MOSUNNY   87  57  35 W6        29.90S
AUGUSTA-DANIEL MOSUNNY   86  58  38 NW8       29.93S
COLUMBUS       SUNNY     85  57  38 N10       29.97S
MACON          MOSUNNY   84  58  40 NW8       29.94S
ROBINS AFB     SUNNY     84  60  44 N12       29.94S


CITY           SKY/WX    TMP DP  RH WIND       PRES   REMARKS
LAGRANGE*      SUNNY     85  61  44 N9        29.99S
SYLVANIA*      SUNNY     87  66  48 NW5       29.92S
MILLEDGEVILLE* MOSUNNY   77  50  38 W5        29.94S
$$

GAZ099>101-110>166-300000-
SOUTH GEORGIA

CITY           SKY/WX    TMP DP  RH WIND       PRES   REMARKS
SAVANNAH       MOSUNNY   90  59  35 N9        29.90R
VALDOSTA       MOSUNNY   90  59  35 VRB5      29.92S
ALMA           SUNNY     90  56  31 NW10      29.91R
ST SIMONS      SUNNY     86  70  58 E10       29.89R HX  90
FT STEWART     SUNNY     89  62  40 N7        29.89R
ALBANY         MOSUNNY   88  59  37 NW12      29.96S
HUNTER AFB     CLOUDY    86  73  63 VRB2      29.88R HX  93
MOODY AFB      MOSUNNY   88  73  59 NW12      29.93R HX  95
BRUNSWICK      PTSUNNY   88  68  51 E9        29.90R HX  91


CITY           SKY/WX    TMP DP  RH WIND       PRES   REMARKS
BAINBRIDGE*    SUNNY     86  63  45 NW6       29.94F
MOULTRIE*      SUNNY     86  59  39 NW5       29.95S
VIDALIA*         N/A     88  59  37 NW8       29.92R
WAYCROSS*      PTSUNNY   93  63  35 NW9       29.90S HX  94
DOUGLAS*       SUNNY     90  55  31 NW10      29.94R
$$




U.S. Dept. of Commerce
NOAA National Weather Service
1325 East West Highway
Silver Spring, MD 20910
E-mail: w-nws.webmaster@noaa.gov
Page last modified: May 16, 2007
NATIONAL WEATHER SERVICE: for Safety, for Work, for Fun - FOR LIFE